| time (UTC) | temp F | wind direction | speed MPH | gust MPH | rain 1hr in | rain 24hr in | rain mn in | humidity % | barometer mb |
| 20260505024359 | 63 | 109 | 4.0 | 8.0 | 0.00 | 0.00 | 0.00 | 71 | 1009.6 |
| 20260505023400 | 63 | 118 | 3.0 | 8.0 | 0.00 | 0.00 | 0.00 | 70 | 1009.7 |
| 20260505021359 | 63 | 116 | 3.0 | 9.0 | 0.00 | 0.00 | 0.00 | 68 | 1009.5 |
| 20260505020420 | 63 | 110 | 3.0 | 7.0 | 0.00 | 0.00 | 0.00 | 67 | 1009.7 |
| 20260505015400 | 63 | 126 | 2.0 | 10.0 | 0.00 | 0.00 | 0.00 | 67 | 1009.5 |
| 20260505014359 | 63 | 130 | 2.0 | 8.0 | 0.00 | 0.00 | 0.00 | 68 | 1009.3 |
| 20260505013359 | 63 | 131 | 3.0 | 8.0 | 0.00 | 0.00 | 0.00 | 69 | 1009.5 |
| 20260505012359 | 63 | 114 | 1.0 | 4.0 | 0.00 | 0.00 | 0.00 | 69 | 1009.5 |
| 20260505011400 | 63 | 128 | 2.0 | 8.0 | 0.00 | 0.00 | 0.00 | 69 | 1009.4 |
| 20260505010359 | 63 | 121 | 2.0 | 6.0 | 0.00 | 0.00 | 0.00 | 68 | 1009.4 |
| 20260505005359 | 63 | 104 | 2.0 | 7.0 | 0.00 | 0.00 | 0.00 | 66 | 1009.2 |
| 20260505004400 | 64 | 136 | 2.0 | 7.0 | 0.00 | 0.00 | 0.00 | 66 | 1009.0 |
| 20260505003359 | 64 | 116 | 2.0 | 4.0 | 0.00 | 0.00 | 0.00 | 65 | 1009.1 |
| 20260505002400 | 65 | 123 | 2.0 | 5.0 | 0.00 | 0.00 | 0.00 | 63 | 1009.1 |
| 20260505001421 | 65 | 88 | 2.0 | 7.0 | 0.00 | 0.00 | 0.00 | 61 | 1009.0 |
| 20260505000359 | 66 | 132 | 4.0 | 10.0 | 0.00 | 0.00 | 0.00 | 60 | 1009.1 |
| 20260504235400 | 66 | 129 | 4.0 | 10.0 | 0.00 | 0.00 | 0.00 | 58 | 1009.2 |
| 20260504234420 | 67 | 117 | 3.0 | 7.0 | 0.00 | 0.00 | 0.00 | 58 | 1009.0 |
| 20260504233400 | 68 | 119 | 3.0 | 10.0 | 0.00 | 0.00 | 0.00 | 55 | 1009.1 |
| 20260504232400 | 68 | 130 | 3.0 | 10.0 | 0.00 | 0.00 | 0.00 | 54 | 1009.1 |
| 20260504231400 | 69 | 121 | 4.0 | 11.0 | 0.00 | 0.00 | 0.00 | 52 | 1009.0 |
| 20260504230400 | 69 | 120 | 5.0 | 15.0 | 0.00 | 0.00 | 0.00 | 50 | 1009.2 |
| 20260504225400 | 70 | 81 | 3.0 | 11.0 | 0.00 | 0.00 | 0.00 | 49 | 1009.1 |
| 20260504224359 | 70 | 76 | 1.0 | 15.0 | 0.00 | 0.00 | 0.00 | 50 | 1009.0 |
| 20260504223400 | 71 | 132 | 3.0 | 10.0 | 0.00 | 0.00 | 0.00 | 49 | 1009.0 |
| 20260504222359 | 71 | 138 | 5.0 | 14.0 | 0.00 | 0.00 | 0.00 | 47 | 1008.9 |
| 20260504221400 | 72 | 92 | 3.0 | 14.0 | 0.00 | 0.00 | 0.00 | 47 | 1009.0 |
| 20260504220400 | 73 | 132 | 4.0 | 11.0 | 0.00 | 0.00 | 0.00 | 47 | 1009.0 |
| 20260504215400 | 73 | 125 | 5.0 | 14.0 | 0.00 | 0.00 | 0.00 | 44 | 1008.9 |
| 20260504214400 | 74 | 127 | 6.0 | 15.0 | 0.00 | 0.00 | 0.00 | 44 | 1009.0 |
| 20260504213400 | 74 | 119 | 8.0 | 17.0 | 0.00 | 0.00 | 0.00 | 44 | 1009.0 |
| 20260504212421 | 75 | 103 | 5.0 | 14.0 | 0.00 | 0.00 | 0.00 | 44 | 1009.1 |
| 20260504211400 | 75 | 102 | 5.0 | 12.0 | 0.00 | 0.00 | 0.00 | 42 | 1009.1 |
| 20260504210400 | 75 | 66 | 2.0 | 12.0 | 0.00 | 0.00 | 0.00 | 43 | 1009.0 |
| 20260504205400 | 75 | 87 | 4.0 | 11.0 | 0.00 | 0.00 | 0.00 | 43 | 1009.2 |
| 20260504204400 | 75 | 130 | 4.0 | 12.0 | 0.00 | 0.00 | 0.00 | 43 | 1009.2 |
| 20260504203400 | 75 | 107 | 7.0 | 14.0 | 0.00 | 0.00 | 0.00 | 42 | 1009.4 |
| 20260504201400 | 76 | 71 | 4.0 | 12.0 | 0.00 | 0.00 | 0.00 | 42 | 1009.2 |
| 20260504200400 | 76 | 123 | 3.0 | 13.0 | 0.00 | 0.00 | 0.00 | 42 | 1009.4 |
| 20260504195401 | 76 | 106 | 4.0 | 11.0 | 0.00 | 0.00 | 0.00 | 42 | 1009.5 |
| 20260504194400 | 76 | 113 | 3.0 | 11.0 | 0.00 | 0.00 | 0.00 | 42 | 1009.8 |
| 20260504193401 | 75 | 76 | 3.0 | 14.0 | 0.00 | 0.00 | 0.00 | 42 | 1009.9 |
| 20260504192401 | 75 | 98 | 2.0 | 13.0 | 0.00 | 0.00 | 0.00 | 43 | 1010.2 |
| 20260504191400 | 75 | 55 | 5.0 | 12.0 | 0.00 | 0.00 | 0.00 | 42 | 1010.2 |
| 20260504190401 | 75 | 88 | 4.0 | 15.0 | 0.00 | 0.00 | 0.00 | 43 | 1010.4 |
| 20260504185401 | 74 | 75 | 4.0 | 12.0 | 0.00 | 0.00 | 0.00 | 43 | 1010.5 |
| 20260504184401 | 74 | 77 | 5.0 | 12.0 | 0.00 | 0.00 | 0.00 | 42 | 1010.7 |
| 20260504183401 | 74 | 127 | 4.0 | 16.0 | 0.00 | 0.00 | 0.00 | 42 | 1010.9 |
| 20260504182400 | 74 | 127 | 7.0 | 13.0 | 0.00 | 0.00 | 0.00 | 42 | 1010.9 |
| 20260504181401 | 74 | 38 | 2.0 | 11.0 | 0.00 | 0.00 | 0.00 | 45 | 1011.1 |
| 20260504180400 | 74 | 114 | 3.0 | 11.0 | 0.00 | 0.00 | 0.00 | 42 | 1011.1 |
| 20260504175401 | 74 | 144 | 5.0 | 12.0 | 0.00 | 0.00 | 0.00 | 41 | 1011.3 |
| 20260504174400 | 74 | 57 | 3.0 | 9.0 | 0.00 | 0.00 | 0.00 | 41 | 1011.5 |
| 20260504173401 | 74 | 139 | 2.0 | 11.0 | 0.00 | 0.00 | 0.00 | 41 | 1011.7 |
| 20260504172401 | 74 | 148 | 3.0 | 10.0 | 0.00 | 0.00 | 0.00 | 39 | 1011.7 |
| 20260504171400 | 74 | 101 | 3.0 | 7.0 | 0.00 | 0.00 | 0.00 | 39 | 1011.8 |
| 20260504170401 | 73 | 250 | 5.0 | 9.0 | 0.00 | 0.00 | 0.00 | 37 | 1011.8 |
| 20260504160402 | 71 | 107 | 2.0 | 9.0 | 0.00 | 0.00 | 0.00 | 41 | 1012.7 |
| 20260504150401 | 66 | 237 | 2.0 | 7.0 | 0.00 | 0.00 | 0.00 | 48 | 1013.3 |
| 20260504140402 | 62 | 138 | 1.0 | 8.0 | 0.00 | 0.00 | 0.00 | 54 | 1013.5 |
| 20260504130402 | 58 | 137 | 1.0 | 7.0 | 0.00 | 0.00 | 0.00 | 59 | 1013.8 |
| 20260504110402 | 51 | 130 | 2.0 | 6.0 | 0.00 | 0.00 | 0.00 | 72 | 1014.4 |
| 20260504100402 | 48 | 118 | 2.0 | 6.0 | 0.00 | 0.00 | 0.00 | 79 | 1014.4 |
| 20260504081402 | 49 | 128 | 0.0 | 2.0 | 0.00 | 0.00 | 0.00 | 75 | 1014.7 |
| 20260504080403 | 49 | 128 | 0.0 | 4.0 | 0.00 | 0.00 | 0.00 | 74 | 1014.8 |
| 20260504050359 | 46 | 185 | 0.0 | 4.0 | 0.00 | 0.00 | 0.00 | 74 | 1014.8 |
| 20260504045420 | 46 | 116 | 1.0 | 7.0 | 0.00 | 0.00 | 0.00 | 75 | 1014.9 |
| 20260504044359 | 45 | 122 | 2.0 | 6.0 | 0.00 | 0.00 | 0.00 | 76 | 1015.1 |
| 20260504043359 | 45 | 138 | 0.0 | 4.0 | 0.00 | 0.00 | 0.00 | 76 | 1015.0 |
| 20260504042359 | 45 | 163 | 1.0 | 4.0 | 0.00 | 0.00 | 0.00 | 77 | 1015.0 |
| 20260504041420 | 45 | 124 | 0.0 | 3.0 | 0.00 | 0.00 | 0.00 | 78 | 1015.0 |
| 20260504040358 | 45 | 125 | 0.0 | 2.0 | 0.00 | 0.00 | 0.00 | 78 | 1014.9 |
| 20260504035359 | 45 | 125 | 0.0 | 3.0 | 0.00 | 0.00 | 0.00 | 77 | 1014.9 |
| 20260504034359 | 45 | 126 | 0.0 | 3.0 | 0.00 | 0.00 | 0.00 | 76 | 1014.7 |
| 20260504033420 | 45 | 165 | 0.0 | 4.0 | 0.00 | 0.00 | 0.00 | 76 | 1014.6 |
| 20260504032359 | 45 | 212 | 1.0 | 2.0 | 0.00 | 0.00 | 0.00 | 75 | 1014.4 |
| 20260504031359 | 45 | 213 | 0.0 | 1.0 | 0.00 | 0.00 | 0.00 | 75 | 1014.4 |
| 20260504030420 | 45 | 212 | 0.0 | 2.0 | 0.00 | 0.00 | 0.00 | 74 | 1014.4 |
| 20260504025359 | 45 | 212 | 0.0 | 1.0 | 0.00 | 0.00 | 0.00 | 75 | 1014.4 |